Location: Unspecified
(0.0000°N, 0.0000°E)
Time: 21:56:15
(UTC+00:00)

NNS O-32 - Visible Passes

Search period start: 04 June 2023 00:00
Search period end: 14 June 2023 00:00
Orbit: 1014 x 1296 km, 90.3° (Epoch: 04 June)

Date Brightness Start Highest point End Pass type
(mag) Time Alt. Az. Time Alt. Az. Time Alt. Az.
04 Jun 10.5 19:12:31 10° NW 19:17:32 24° W 19:22:27 10° SW visible
05 Jun 11.0 05:08:44 10° SE 05:14:39 25° E 05:20:38 10° NNE visible
05 Jun 9.4 18:42:18 10° NNW 18:48:24 43° W 18:54:22 10° SSW visible
06 Jun 11.3 04:42:08 10° ESE 04:45:36 14° E 04:49:05 10° ENE visible
06 Jun 8.4 18:12:46 10° N 18:19:16 78° W 18:25:36 10° S visible
08 Jun 9.8 05:27:53 10° SSE 05:35:10 49° E 05:42:33 10° NNE visible
08 Jun 10.7 19:04:19 10° NW 19:08:47 20° W 19:13:14 10° SW visible
09 Jun 10.6 04:59:43 10° SE 05:06:05 29° E 05:12:31 10° NNE visible
09 Jun 9.8 18:33:51 10° NNW 18:39:40 37° W 18:45:24 10° SSW visible
10 Jun 11.2 04:32:35 10° ESE 04:37:02 16° E 04:41:29 10° NE visible
12 Jun 9.4 05:19:07 10° SSE 05:26:37 56° E 05:34:10 10° N visible
12 Jun 10.8 18:56:13 10° NW 19:00:03 17° W 19:03:53 10° WSW visible
13 Jun 10.3 04:50:48 10° SSE 04:57:33 33° E 05:04:18 10° NNE visible
13 Jun 10.2 18:25:25 10° NNW 18:30:54 31° W 18:36:24 10° SW visible
